Time,TemperatureF,DewpointF,PressureIn,WindDirection,WindDirectionDegrees,WindSpeedMPH,WindSpeedGustMPH,Humidity,HourlyPrecipIn,Conditions,Clouds,dailyrainin,SoftwareType,DateUTC
2013-05-12 00:02:00,39.0,23.0,-100.00,NW,310,9.0,12.0,52,0.00,,,-99.99,,2013-05-12 05:02:00,
2013-05-12 00:12:00,39.0,23.0,-100.00,NW,310,9.0,12.0,52,0.00,,,-99.99,,2013-05-12 05:12:00,
2013-05-12 00:22:00,38.0,23.0,-100.00,NW,320,8.0,10.0,54,0.00,,,-99.99,,2013-05-12 05:22:00,
2013-05-12 00:32:00,37.0,24.0,-100.00,NW,310,7.0,9.0,57,0.00,,,-99.99,,2013-05-12 05:32:00,
2013-05-12 00:42:00,36.0,24.0,-100.00,WNW,300,6.0,8.0,59,0.00,,,-99.99,,2013-05-12 05:42:00,
2013-05-12 00:52:00,34.0,23.0,-100.00,WNW,300,6.0,7.0,63,0.00,,,-99.99,,2013-05-12 05:52:00,
2013-05-12 01:01:00,34.0,23.0,-100.00,WNW,300,6.0,7.0,63,0.00,,,-99.99,,2013-05-12 06:01:00,
2013-05-12 01:11:00,34.0,24.0,-100.00,WNW,295,6.0,7.0,65,0.00,,,-99.99,,2013-05-12 06:11:00,
2013-05-12 01:21:00,34.0,24.0,-100.00,WNW,300,6.0,7.0,67,0.00,,,-99.99,,2013-05-12 06:21:00,
2013-05-12 01:32:00,34.0,24.0,-100.00,WNW,300,6.0,7.0,67,0.00,,,-99.99,,2013-05-12 06:32:00,
2013-05-12 01:42:00,33.0,24.0,-100.00,WNW,300,6.0,7.0,70,0.00,,,-99.99,,2013-05-12 06:42:00,
2013-05-12 01:51:00,32.0,25.0,-100.00,NW,310,7.0,7.0,72,0.00,,,-99.99,,2013-05-12 06:51:00,
2013-05-12 02:01:00,32.0,25.0,-100.00,NW,310,7.0,7.0,72,0.00,,,-99.99,,2013-05-12 07:01:00,
2013-05-12 02:11:00,33.0,25.0,-100.00,NW,310,6.0,7.0,73,0.00,,,-99.99,,2013-05-12 07:11:00,
2013-05-12 02:21:00,33.0,26.0,-100.00,NW,315,5.0,6.0,74,0.00,,,-99.99,,2013-05-12 07:21:00,
2013-05-12 02:32:00,33.0,26.0,-100.00,NW,310,5.0,6.0,74,0.00,,,-99.99,,2013-05-12 07:32:00,
2013-05-12 02:42:00,33.0,26.0,-100.00,NW,310,5.0,6.0,74,0.00,,,-99.99,,2013-05-12 07:42:00,
2013-05-12 02:52:00,31.0,26.0,-100.00,NW,315,6.0,6.0,78,0.00,,,-99.99,,2013-05-12 07:52:00,
2013-05-12 03:02:00,31.0,26.0,-100.00,NW,315,6.0,6.0,78,0.00,,,-99.99,,2013-05-12 08:02:00,
2013-05-12 03:11:00,32.0,26.0,-100.00,NW,305,6.0,7.0,78,0.00,,,-99.99,,2013-05-12 08:11:00,
2013-05-12 03:21:00,31.0,26.0,-100.00,NW,315,6.0,7.0,79,0.00,,,-99.99,,2013-05-12 08:21:00,
2013-05-12 03:32:00,31.0,26.0,-100.00,WNW,300,3.0,6.0,81,0.00,,,-99.99,,2013-05-12 08:32:00,
2013-05-12 03:41:00,30.0,25.0,-100.00,WNW,285,6.0,6.0,81,0.00,,,-99.99,,2013-05-12 08:41:00,
2013-05-12 03:52:00,29.0,25.0,-100.00,WNW,285,4.0,6.0,83,0.00,,,-99.99,,2013-05-12 08:52:00,
2013-05-12 04:01:00,29.0,25.0,-100.00,WNW,285,4.0,6.0,83,0.00,,,-99.99,,2013-05-12 09:01:00,
2013-05-12 04:11:00,29.0,25.0,-100.00,WNW,295,3.0,4.0,84,0.00,,,-99.99,,2013-05-12 09:11:00,
2013-05-12 04:21:00,29.0,26.0,-100.00,WNW,300,2.0,4.0,85,0.00,,,-99.99,,2013-05-12 09:21:00,
2013-05-12 04:33:00,29.0,26.0,-100.00,WNW,290,4.0,4.0,86,0.00,,,-99.99,,2013-05-12 09:33:00,
2013-05-12 04:42:00,29.0,26.0,-100.00,WNW,290,4.0,4.0,86,0.00,,,-99.99,,2013-05-12 09:42:00,
2013-05-12 04:52:00,29.0,26.0,-100.00,WNW,295,6.0,6.0,87,0.00,,,-99.99,,2013-05-12 09:52:00,
2013-05-12 05:03:00,29.0,26.0,-100.00,WNW,295,6.0,6.0,87,0.00,,,-99.99,,2013-05-12 10:03:00,
2013-05-12 05:12:00,29.0,26.0,-100.00,WNW,295,6.0,7.0,87,0.00,,,-99.99,,2013-05-12 10:12:00,
2013-05-12 05:22:00,29.0,26.0,-100.00,WNW,295,6.0,8.0,85,0.00,,,-99.99,,2013-05-12 10:22:00,
2013-05-12 05:33:00,29.0,26.0,-100.00,NW,310,6.0,7.0,85,0.00,,,-99.99,,2013-05-12 10:33:00,
2013-05-12 05:42:00,29.0,25.0,-100.00,WNW,300,6.0,7.0,85,0.00,,,-99.99,,2013-05-12 10:42:00,
2013-05-12 05:52:00,29.0,25.0,-100.00,WNW,300,6.0,7.0,85,0.00,,,-99.99,,2013-05-12 10:52:00,
2013-05-12 06:02:00,29.0,25.0,-100.00,WNW,295,5.0,7.0,85,0.00,,,-99.99,,2013-05-12 11:02:00,
2013-05-12 06:12:00,29.0,25.0,-100.00,WNW,295,5.0,6.0,86,0.00,,,-99.99,,2013-05-12 11:12:00,
2013-05-12 06:21:00,28.0,25.0,-100.00,WNW,295,4.0,6.0,86,0.00,,,-99.99,,2013-05-12 11:21:00,
2013-05-12 06:32:00,29.0,26.0,-100.00,WNW,295,4.0,6.0,87,0.00,,,-99.99,,2013-05-12 11:32:00,
2013-05-12 06:42:00,30.0,26.0,-100.00,WNW,300,5.0,6.0,87,0.00,,,-99.99,,2013-05-12 11:42:00,
2013-05-12 06:51:00,32.0,28.0,-100.00,WNW,300,4.0,5.0,84,0.00,,,-99.99,,2013-05-12 11:51:00,
2013-05-12 07:01:00,32.0,28.0,-100.00,WNW,300,4.0,5.0,84,0.00,,,-99.99,,2013-05-12 12:01:00,
2013-05-12 07:11:00,34.0,29.0,-100.00,WNW,295,4.0,5.0,80,0.00,,,-99.99,,2013-05-12 12:11:00,
2013-05-12 07:21:00,35.0,29.0,-100.00,WNW,300,3.0,4.0,77,0.00,,,-99.99,,2013-05-12 12:21:00,
2013-05-12 07:32:00,37.0,29.0,-100.00,NW,310,6.0,9.0,71,0.00,,,-99.99,,2013-05-12 12:32:00,
2013-05-12 07:41:00,37.0,28.0,-100.00,NW,310,7.0,9.0,69,0.00,,,-99.99,,2013-05-12 12:41:00,
2013-05-12 07:51:00,39.0,29.0,-100.00,NW,310,9.0,10.0,66,0.00,,,-99.99,,2013-05-12 12:51:00,
2013-05-12 08:01:00,39.0,29.0,-100.00,NW,310,9.0,10.0,66,0.00,,,-99.99,,2013-05-12 13:01:00,
2013-05-12 08:11:00,40.0,29.0,-100.00,NW,315,7.0,10.0,63,0.00,,,-99.99,,2013-05-12 13:11:00,
2013-05-12 08:21:00,41.0,28.0,-100.00,WNW,295,7.0,10.0,60,0.00,,,-99.99,,2013-05-12 13:21:00,
2013-05-12 08:32:00,42.0,27.0,-100.00,NW,320,9.0,12.0,55,0.00,,,-99.99,,2013-05-12 13:32:00,
2013-05-12 08:41:00,42.0,26.0,-100.00,NNW,340,7.0,12.0,52,0.00,,,-99.99,,2013-05-12 13:41:00,
2013-05-12 08:52:00,44.0,26.0,-100.00,NW,305,9.0,13.0,49,0.00,,,-99.99,,2013-05-12 13:52:00,
2013-05-12 09:01:00,44.0,26.0,-100.00,NW,305,10.0,14.0,49,0.00,,,-99.99,,2013-05-12 14:01:00,
2013-05-12 09:11:00,43.0,24.0,-100.00,North,10,7.0,14.0,46,0.00,,,-99.99,,2013-05-12 14:11:00,
2013-05-12 09:21:00,44.0,25.0,-100.00,NNW,335,8.0,16.0,46,0.00,,,-99.99,,2013-05-12 14:21:00,
2013-05-12 09:32:00,45.0,24.0,-100.00,NNW,335,9.0,15.0,44,0.00,,,-99.99,,2013-05-12 14:32:00,
2013-05-12 09:42:00,45.0,24.0,-100.00,NNW,335,9.0,15.0,44,0.00,,,-99.99,,2013-05-12 14:42:00,
2013-05-12 09:52:00,46.0,25.0,-100.00,WNW,300,9.0,16.0,43,0.00,,,-99.99,,2013-05-12 14:52:00,
2013-05-12 10:01:00,46.0,25.0,-100.00,WNW,300,9.0,16.0,43,0.00,,,-99.99,,2013-05-12 15:01:00,
2013-05-12 10:11:00,46.0,25.0,-100.00,WNW,300,12.0,17.0,43,0.00,,,-99.99,,2013-05-12 15:11:00,
2013-05-12 10:21:00,46.0,24.0,-100.00,WNW,290,12.0,19.0,41,0.00,,,-99.99,,2013-05-12 15:21:00,
2013-05-12 10:34:00,46.0,24.0,-100.00,WNW,295,12.0,21.0,41,0.00,,,-99.99,,2013-05-12 15:34:00,
2013-05-12 10:42:00,47.0,24.0,-100.00,NW,315,12.0,19.0,40,0.00,,,-99.99,,2013-05-12 15:42:00,
2013-05-12 10:52:00,48.0,24.0,-100.00,NW,310,14.0,21.0,38,0.00,,,-99.99,,2013-05-12 15:52:00,
2013-05-12 11:02:00,48.0,24.0,-100.00,NW,310,14.0,21.0,38,0.00,,,-99.99,,2013-05-12 16:02:00,
2013-05-12 11:12:00,49.0,25.0,-100.00,WNW,295,7.0,16.0,38,0.00,,,-99.99,,2013-05-12 16:12:00,
2013-05-12 11:23:00,49.0,25.0,-100.00,NW,310,17.0,21.0,38,0.00,,,-99.99,,2013-05-12 16:23:00,
2013-05-12 11:33:00,50.0,25.0,-100.00,WNW,300,12.0,17.0,38,0.00,,,-99.99,,2013-05-12 16:33:00,
2013-05-12 11:42:00,50.0,25.0,-100.00,WNW,300,12.0,17.0,38,0.00,,,-99.99,,2013-05-12 16:42:00,
2013-05-12 11:52:00,50.0,25.0,-100.00,NW,320,11.0,20.0,37,0.00,,,-99.99,,2013-05-12 16:52:00,
2013-05-12 12:02:00,50.0,24.0,-100.00,WNW,290,12.0,20.0,36,0.00,,,-99.99,,2013-05-12 17:02:00,
2013-05-12 12:11:00,50.0,24.0,-100.00,North,0,6.0,16.0,35,0.00,,,-99.99,,2013-05-12 17:11:00,
2013-05-12 12:22:00,51.0,24.0,-100.00,NNW,335,11.0,17.0,35,0.00,,,-99.99,,2013-05-12 17:22:00,
2013-05-12 12:32:00,51.0,24.0,-100.00,NW,320,17.0,22.0,34,0.00,,,-99.99,,2013-05-12 17:32:00,
2013-05-12 12:42:00,51.0,24.0,-100.00,NW,320,17.0,22.0,34,0.00,,,-99.99,,2013-05-12 17:42:00,
2013-05-12 12:52:00,51.0,24.0,-100.00,NW,325,17.0,22.0,33,0.00,,,-99.99,,2013-05-12 17:52:00,
2013-05-12 13:01:00,51.0,23.0,-100.00,WNW,295,11.0,18.0,33,0.00,,,-99.99,,2013-05-12 18:01:00,
2013-05-12 13:12:00,52.0,24.0,-100.00,West,280,8.0,17.0,33,0.00,,,-99.99,,2013-05-12 18:12:00,
2013-05-12 13:22:00,53.0,23.0,-100.00,North,350,9.0,19.0,31,0.00,,,-99.99,,2013-05-12 18:22:00,
2013-05-12 13:32:00,54.0,24.0,-100.00,NNW,335,10.0,19.0,31,0.00,,,-99.99,,2013-05-12 18:32:00,
2013-05-12 13:42:00,54.0,24.0,-100.00,NNW,335,10.0,19.0,31,0.00,,,-99.99,,2013-05-12 18:42:00,
2013-05-12 13:51:00,54.0,24.0,-100.00,WNW,285,6.0,19.0,31,0.00,,,-99.99,,2013-05-12 18:51:00,
2013-05-12 14:01:00,54.0,24.0,-100.00,WNW,300,16.0,23.0,30,0.00,,,-99.99,,2013-05-12 19:01:00,
2013-05-12 14:11:00,54.0,24.0,-100.00,NW,305,12.0,19.0,30,0.00,,,-99.99,,2013-05-12 19:11:00,
2013-05-12 14:21:00,55.0,24.0,-100.00,NW,325,12.0,18.0,30,0.00,,,-99.99,,2013-05-12 19:21:00,
2013-05-12 14:32:00,55.0,24.0,-100.00,North,0,10.0,17.0,29,0.00,,,-99.99,,2013-05-12 19:32:00,
2013-05-12 14:42:00,56.0,24.0,-100.00,West,280,15.0,21.0,29,0.00,,,-99.99,,2013-05-12 19:42:00,
2013-05-12 14:52:00,56.0,25.0,-100.00,NW,310,10.0,24.0,28,0.00,,,-99.99,,2013-05-12 19:52:00,
2013-05-12 15:02:00,56.0,25.0,-100.00,NW,310,10.0,24.0,28,0.00,,,-99.99,,2013-05-12 20:02:00,
2013-05-12 15:11:00,57.0,24.0,-100.00,NNW,340,9.0,16.0,28,0.00,,,-99.99,,2013-05-12 20:11:00,
2013-05-12 15:21:00,58.0,25.0,-100.00,WNW,290,12.0,17.0,27,0.00,,,-99.99,,2013-05-12 20:21:00,
2013-05-12 15:32:00,58.0,24.0,-100.00,NW,315,13.0,20.0,26,0.00,,,-99.99,,2013-05-12 20:32:00,
2013-05-12 15:42:00,58.0,24.0,-100.00,NW,315,13.0,20.0,26,0.00,,,-99.99,,2013-05-12 20:42:00,
2013-05-12 15:51:00,59.0,24.0,-100.00,WNW,295,13.0,21.0,26,0.00,,,-99.99,,2013-05-12 20:51:00,
2013-05-12 16:01:00,59.0,24.0,-100.00,WNW,295,13.0,21.0,26,0.00,,,-99.99,,2013-05-12 21:01:00,
2013-05-12 16:11:00,59.0,24.0,-100.00,WNW,295,12.0,21.0,25,0.00,,,-99.99,,2013-05-12 21:11:00,
2013-05-12 16:21:00,58.0,22.0,-100.00,NNW,335,12.0,22.0,24,0.00,,,-99.99,,2013-05-12 21:21:00,
2013-05-12 16:33:00,59.0,22.0,-100.00,NNW,335,12.0,19.0,23,0.00,,,-99.99,,2013-05-12 21:33:00,
2013-05-12 16:42:00,59.0,22.0,-100.00,NNW,335,12.0,19.0,23,0.00,,,-99.99,,2013-05-12 21:42:00,
2013-05-12 16:52:00,60.0,23.0,-100.00,WNW,295,13.0,26.0,24,0.00,,,-99.99,,2013-05-12 21:52:00,
2013-05-12 17:02:00,60.0,23.0,-100.00,WNW,295,13.0,26.0,24,0.00,,,-99.99,,2013-05-12 22:02:00,
2013-05-12 17:12:00,61.0,23.0,-100.00,WNW,290,11.0,19.0,23,0.00,,,-99.99,,2013-05-12 22:12:00,
2013-05-12 17:23:00,60.0,23.0,-100.00,WNW,290,16.0,22.0,24,0.00,,,-99.99,,2013-05-12 22:23:00,
2013-05-12 17:33:00,58.0,21.0,-100.00,NNW,335,12.0,19.0,23,0.00,,,-99.99,,2013-05-12 22:33:00,
2013-05-12 17:42:00,58.0,21.0,-100.00,NNW,335,12.0,19.0,23,0.00,,,-99.99,,2013-05-12 22:42:00,
2013-05-12 17:52:00,59.0,21.0,-100.00,WNW,295,9.0,16.0,23,0.00,,,-99.99,,2013-05-12 22:52:00,
2013-05-12 18:02:00,58.0,21.0,-100.00,NW,310,10.0,17.0,23,0.00,,,-99.99,,2013-05-12 23:02:00,
2013-05-12 18:12:00,58.0,20.0,-100.00,NW,305,12.0,20.0,22,0.00,,,-99.99,,2013-05-12 23:12:00,
2013-05-12 18:22:00,58.0,20.0,-100.00,North,350,7.0,17.0,22,0.00,,,-99.99,,2013-05-12 23:22:00,
2013-05-12 18:32:00,58.0,20.0,-100.00,NW,315,13.0,21.0,22,0.00,,,-99.99,,2013-05-12 23:32:00,
2013-05-12 18:42:00,58.0,20.0,-100.00,NW,315,13.0,21.0,22,0.00,,,-99.99,,2013-05-12 23:42:00,
2013-05-12 18:52:00,57.0,19.0,-100.00,NW,315,12.0,19.0,22,0.00,,,-99.99,,2013-05-12 23:52:00,
2013-05-12 19:01:00,57.0,19.0,-100.00,NW,315,12.0,19.0,22,0.00,,,-99.99,,2013-05-13 00:01:00,
2013-05-12 19:11:00,57.0,19.0,-100.00,NW,310,12.0,17.0,22,0.00,,,-99.99,,2013-05-13 00:11:00,
2013-05-12 19:21:00,56.0,19.0,-100.00,WNW,295,11.0,16.0,23,0.00,,,-99.99,,2013-05-13 00:21:00,
2013-05-12 19:32:00,56.0,19.0,-100.00,NW,310,12.0,17.0,23,0.00,,,-99.99,,2013-05-13 00:32:00,
2013-05-12 19:41:00,56.0,19.0,-100.00,NW,310,12.0,17.0,23,0.00,,,-99.99,,2013-05-13 00:41:00,
2013-05-12 19:51:00,55.0,19.0,-100.00,NW,320,10.0,14.0,24,0.00,,,-99.99,,2013-05-13 00:51:00,
2013-05-12 20:01:00,55.0,19.0,-100.00,NW,320,10.0,14.0,24,0.00,,,-99.99,,2013-05-13 01:01:00,
2013-05-12 20:11:00,54.0,19.0,-100.00,WNW,300,9.0,13.0,24,0.00,,,-99.99,,2013-05-13 01:11:00,
2013-05-12 20:22:00,53.0,19.0,-100.00,NW,315,8.0,11.0,26,0.00,,,-99.99,,2013-05-13 01:22:00,
2013-05-12 20:31:00,50.0,20.0,-100.00,NW,320,5.0,7.0,30,0.00,,,-99.99,,2013-05-13 01:31:00,
2013-05-12 20:41:00,50.0,20.0,-100.00,NW,320,5.0,7.0,30,0.00,,,-99.99,,2013-05-13 01:41:00,
2013-05-12 20:52:00,46.0,21.0,-100.00,NW,310,4.0,4.0,35,0.00,,,-99.99,,2013-05-13 01:52:00,
2013-05-12 21:01:00,46.0,21.0,-100.00,NW,310,4.0,4.0,35,0.00,,,-99.99,,2013-05-13 02:01:00,
2013-05-12 21:11:00,45.0,21.0,-100.00,NNW,345,1.0,5.0,38,0.00,,,-99.99,,2013-05-13 02:11:00,
2013-05-12 21:21:00,45.0,21.0,-100.00,NNW,345,1.0,5.0,38,0.00,,,-99.99,,2013-05-13 02:21:00,
2013-05-12 21:32:00,42.0,24.0,-100.00,NW,315,0.0,2.0,48,0.00,,,-99.99,,2013-05-13 02:32:00,
2013-05-12 21:41:00,42.0,24.0,-100.00,NW,315,0.0,2.0,48,0.00,,,-99.99,,2013-05-13 02:41:00,
2013-05-12 21:51:00,41.0,24.0,-100.00,West,265,0.0,0.0,50,0.00,,,-99.99,,2013-05-13 02:51:00,
2013-05-12 22:02:00,40.0,25.0,-100.00,WSW,255,0.0,1.0,53,0.00,,,-99.99,,2013-05-13 03:02:00,
2013-05-12 22:11:00,41.0,26.0,-100.00,NE,50,1.0,2.0,55,0.00,,,-99.99,,2013-05-13 03:11:00,
2013-05-12 22:21:00,42.0,26.0,-100.00,NNE,25,1.0,3.0,53,0.00,,,-99.99,,2013-05-13 03:21:00,
2013-05-12 22:32:00,40.0,25.0,-100.00,ENE,75,1.0,2.0,54,0.00,,,-99.99,,2013-05-13 03:32:00,
2013-05-12 22:42:00,39.0,25.0,-100.00,WNW,290,0.0,1.0,57,0.00,,,-99.99,,2013-05-13 03:42:00,
2013-05-12 22:52:00,39.0,25.0,-100.00,WNW,290,0.0,1.0,57,0.00,,,-99.99,,2013-05-13 03:52:00,
2013-05-12 23:02:00,39.0,25.0,-100.00,WNW,290,0.0,1.0,57,0.00,,,-99.99,,2013-05-13 04:02:00,
2013-05-12 23:12:00,39.0,26.0,-100.00,ENE,70,1.0,1.0,59,0.00,,,-99.99,,2013-05-13 04:12:00,
2013-05-12 23:23:00,38.0,26.0,-100.00,NE,50,0.0,1.0,62,0.00,,,-99.99,,2013-05-13 04:23:00,
2013-05-12 23:32:00,37.0,27.0,-100.00,North,0,0.0,0.0,66,0.00,,,-99.99,,2013-05-13 04:32:00,
2013-05-12 23:42:00,37.0,27.0,-100.00,SE,135,0.0,2.0,68,0.00,,,-99.99,,2013-05-13 04:42:00,
2013-05-12 23:52:00,36.0,27.0,-100.00,SE,145,0.0,1.0,70,0.00,,,-99.99,,2013-05-13 04:52:00,